This is the latest recevied weather packets stored in our database for station/object NQ9F. If no packets are shown the sender has not sent any weather packets the latest 10 day(s).
| Time | Temp. | Humidity | Pressure | Rain* | Wind** | Luminosity | Snow |
|---|---|---|---|---|---|---|---|
| 1777817775 | 19.44° C | 58% | 1021.3 hPa | 0 mm | - | 338 W/m² | - |
| 1777817474 | 19.44° C | 57% | 1021.3 hPa | 0 mm | - | 325 W/m² | - |
| 1777817169 | 18.89° C | 59% | 1021.3 hPa | 0 mm | - | 303 W/m² | - |
| 1777816867 | 18.89° C | 59% | 1021.2 hPa | 0 mm | - | 285 W/m² | - |
| 1777816564 | 18.89° C | 60% | 1021.3 hPa | 0 mm | - | 265 W/m² | - |
| 1777816260 | 18.33° C | 62% | 1021.2 hPa | 0 mm | - | 251 W/m² | - |
| 1777815958 | 18.33° C | 62% | 1021.2 hPa | 0 mm | - | 232 W/m² | - |
| 1777815655 | 17.78° C | 61% | 1021.2 hPa | 0 mm | - | 214 W/m² | - |
| 1777815352 | 17.78° C | 61% | 1021 hPa | 0 mm | - | 200 W/m² | - |
| 1777815049 | 17.22° C | 62% | 1021.1 hPa | 0 mm | - | 182 W/m² | - |
| 1777814745 | 17.22° C | 63% | 1021 hPa | 0 mm | - | 166 W/m² | - |
| 1777814442 | 16.67° C | 64% | 1021 hPa | 0 mm | - | 148 W/m² | - |
| 1777814140 | 16.67° C | 65% | 1021.1 hPa | 0 mm | - | 140 W/m² | - |
| 1777813836 | 16.67° C | 65% | 1021.1 hPa | 0 mm | - | 127 W/m² | - |
| 1777813534 | 16.67° C | 66% | 1020.9 hPa | 0 mm | - | 117 W/m² | - |
| 1777813232 | 16.11° C | 66% | 1021 hPa | 0 mm | - | 103 W/m² | - |
| 1777812929 | 16.11° C | 66% | 1021.1 hPa | 0 mm | - | 95 W/m² | - |
| 1777812626 | 15.56° C | 68% | 1021.1 hPa | 0 mm | - | 83 W/m² | - |
| 1777812322 | 15.56° C | 69% | 1020.9 hPa | 0 mm | - | 69 W/m² | - |
| 1777812021 | 15° C | 68% | 1020.8 hPa | 0 mm | - | 58 W/m² | - |
| 1777811720 | 15° C | 69% | 1020.8 hPa | 0 mm | - | 49 W/m² | - |
| 1777811415 | 15° C | 70% | 1020.9 hPa | 0 mm | - | 44 W/m² | - |
| 1777811112 | 14.44° C | 70% | 1020.9 hPa | 0 mm | - | 40 W/m² | - |
| 1777810809 | 14.44° C | 72% | 1020.7 hPa | 0 mm | - | 35 W/m² | - |
| 1777810506 | 13.89° C | 72% | 1020.6 hPa | 0 mm | - | 31 W/m² | - |
* Rain latest hour (hover to see other rain measurements)
** Current wind speed in m/s (hover to see current wind gust speed)